This is the latest recevied weather packets stored in our database for station/object OK4ZAW-16. If no packets are shown the sender has not sent any weather packets the latest 10 day(s).
| Time | Temp. | Humidity | Pressure | Rain* | Wind** | Luminosity | Snow |
|---|---|---|---|---|---|---|---|
| 1777467151 | 3.89° C | 42% | 1025.1 hPa | - | - | 150 W/m² | - |
| 1777466319 | 4.44° C | 42% | 1025.2 hPa | - | - | 150 W/m² | - |
| 1777465903 | 4.44° C | 42% | 1025.2 hPa | - | - | 150 W/m² | - |
| 1777463824 | 3.89° C | 45% | 1025.3 hPa | - | - | 150 W/m² | - |
| 1777462992 | 4.44° C | 46% | 1025.3 hPa | - | - | 150 W/m² | - |
| 1777462576 | 4.44° C | 50% | 1025.3 hPa | - | - | 150 W/m² | - |
| 1777462160 | 3.33° C | 50% | 1025.2 hPa | - | - | 150 W/m² | - |
| 1777461328 | 3.33° C | 50% | 1025.3 hPa | - | - | 150 W/m² | - |
| 1777460912 | 3.89° C | 52% | 1025.2 hPa | - | - | 150 W/m² | - |
| 1777459249 | 3.33° C | 61% | 1025.2 hPa | - | - | 150 W/m² | - |
| 1777458833 | 3.33° C | 59% | 1025.2 hPa | - | - | 150 W/m² | - |
| 1777458417 | 3.89° C | 63% | 1025.1 hPa | - | - | 150 W/m² | - |
| 1777458001 | 3.33° C | 64% | 1025.1 hPa | - | - | 150 W/m² | - |
| 1777457585 | 3.33° C | 63% | 1025.1 hPa | - | - | 150 W/m² | - |
| 1777457169 | 3.89° C | 69% | 1025.1 hPa | - | - | 150 W/m² | - |
| 1777456753 | 3.33° C | 73% | 1025.2 hPa | - | - | 150 W/m² | - |
| 1777455505 | 3.33° C | 81% | 1025.2 hPa | - | - | 150 W/m² | - |
| 1777455089 | 3.33° C | 79% | 1025.2 hPa | - | - | 150 W/m² | - |
| 1777454673 | 3.33° C | 80% | 1025.2 hPa | - | - | 150 W/m² | - |
| 1777454257 | 3.33° C | 83% | 1025.3 hPa | - | - | 150 W/m² | - |
| 1777453841 | 3.33° C | 86% | 1025.4 hPa | - | - | 150 W/m² | - |
| 1777453425 | 2.78° C | 92% | 1025.3 hPa | - | - | 150 W/m² | - |
| 1777453009 | 2.22° C | 93% | 1025.4 hPa | - | - | 150 W/m² | - |
| 1777452178 | 1.67° C | 95% | 1025.3 hPa | - | - | 150 W/m² | - |
| 1777451762 | 2.22° C | 95% | 1025.3 hPa | - | - | 150 W/m² | - |
* Rain since midnight (hover to see other rain measurements)
** Current wind speed in m/s (hover to see current wind gust speed)